Flag for Canada Weather past 2 weeks in Ottawa, Ontario, Canada

48 °F


Feels Like: 42 °F
Forecast: N/A
Wind: 16 mph from Northwest

Location: Ottawa Int'L. Ont.

Current Time: Oct 9, 2015 at 6:19:34 PM

Latest Report: Oct 9, 2015 at 5:00 PM

Visibility: 15 mi

Pressure: 29.85 "Hg

Humidity: 87%

Dew point: 45 °F

Location of OttawaLocation

Historic Weather in Ottawa — Graph


Ottawa temperature yesterday

Maximum temperature yesterday: 54 °F (at 3:00 PM)
Minimum temperature yesterday: 37 °F (at 5:00 AM)
Average temperature yesterday: 46 °F

Past Weeks' High & Low Weather Summary

High73 °F (Sep 27, 2:00 PM)100% (Sep 28, 3:50 PM)30.61 "Hg (Sep 28, 3:50 PM)
Low37 °F (Sep 27, 6:00 AM)35% (Oct 2, 2:00 PM)29.78 "Hg (Oct 9, 11:00 AM)
Average53 °F71%30.25 "Hg
* Reported Sep 24 4:00 PM — Oct 9 4:00 PM, Ottawa, Weather by CustomWeather, © 2015

Note: Actual official high and low records may vary slightly from our data, if they occured in-between our weather recording intervals... More about our weather records


Ottawa weather history for previous 24 hours

Time TempWeatherWind HumidityBarometerVisibility
4:00 PM
Fri, Oct 9
46 °FMore clouds than sun.12 mph87%29.81 "Hg15 mi
3:00 PM46 °FMore clouds than sun.13 mph87%29.79 "Hg15 mi
2:00 PM45 °FDrizzle. Mostly cloudy.6 mph100%29.79 "Hg10 mi
1:00 PM45 °FDrizzle. Fog.9 mph93%29.78 "Hg2 mi
12:00 PM43 °FLight rain. Fog.6 mph100%29.78 "Hg2 mi
11:00 AM43 °FLight rain. Fog.6 mph93%29.78 "Hg3 mi
10:00 AM43 °FLight rain. Fog.8 mph93%29.79 "Hg4 mi
9:00 AM41 °FLight rain. Fog.12 mph100%29.79 "Hg3 mi
8:00 AM41 °FLight rain. Fog.14 mph93%29.82 "Hg3 mi
7:00 AM41 °FLight rain. Mostly cloudy.14 mph93%29.83 "Hg8 mi
6:00 AM43 °FLight rain. Overcast.15 mph93%29.85 "Hg7 mi
5:00 AM43 °FLight rain. Overcast.16 mph93%29.87 "Hg8 mi
4:00 AM43 °FLight rain. Overcast.12 mph93%29.91 "Hg10 mi
3:00 AM45 °FLight rain. Overcast.10 mph81%29.96 "Hg15 mi
2:00 AM46 °FLight rain. Overcast.8 mph71%29.98 "Hg15 mi
1:00 AM46 °FOvercast.8 mph71%30.01 "Hg15 mi
12:00 AM46 °FOvercast.7 mph66%30.04 "Hg15 mi
11:00 PM
Thu, Oct 8
48 °FOvercast.13 mph62%30.05 "Hg15 mi
10:00 PM48 °FOvercast.6 mph62%30.10 "Hg15 mi
9:00 PM48 °FOvercast.5 mph62%30.11 "Hg15 mi
8:00 PM46 °FOvercast.7 mph66%30.11 "Hg15 mi
7:00 PM48 °FOvercast.6 mph62%30.13 "Hg15 mi
6:00 PM50 °FBroken clouds.5 mph58%30.14 "Hg15 mi
Weather by CustomWeather, © 2015

See weather overviewHow to use our weather pages